sat.trackr.live / text

‹ back to catalog

STARLINK-35622

NORAD 66103 · 2025-236T

PAYLOAD ACTIVE UNKNOWN

§ Identity

Operator
Country
US
Launch date
2025-10-19
Launch site
AFWTR
Launch vehicle
Mass (kg)
RCS (m²)

Purposes: comms

External: N2YO · Heavens-Above · Gunter

§ Orbital elements

Epoch: 2026-09-20T00:26:01.286880Z

Period
93.85 min
Inclination
53.1555°
Eccentricity
0.0002407
Mean motion
15.34403946 rev/d
Perigee alt
461.0 km
Apogee alt
464.3 km
Semi-major
6,840.8 km
B*
4.9420e-4
RAAN
277.9387°
Arg perigee
61.8258°
Mean anomaly
298.2987°
Rev number
5,274

§ Raw data

STARLINK-356221 66103U 25236T   26263.01807045  .00016360  00000+0  49420-3 0  99952 66103  53.1555 277.9387 0002407  61.8258 298.2987 15.34403946 52740

JSON: /api/v1/satellites/66103 · /tle

For live sub-satellite position, see the globe view (requires WebGL).

§ Visibility from observer

Set your observer location to see the next 7 days of passes ≥ 10°. The values pass through the URL so the page stays shareable.

No JS? Fill the form by hand. The geolocation button needs JavaScript.